| time (UTC) | temp F | wind direction | speed knots | gust knots | rain 1hr in | rain 24hr in | rain mn in | humidity % | barometer mb |
| 20260506220247 | 65 | 0.0 | 0.9 | 0.00 | 0.00 | 0.00 | 7 | 1006.0 | |
| 20260506215652 | 65 | 45 | 0.9 | 0.9 | 0.00 | 0.00 | 0.00 | 7 | 1006.0 |
| 20260506215053 | 65 | 45 | 2.6 | 2.6 | 0.00 | 0.00 | 0.00 | 7 | 1006.0 |
| 20260506214458 | 66 | 315 | 0.0 | 0.0 | 0.00 | 0.00 | 0.00 | 7 | 1006.0 |
| 20260506213902 | 66 | 0 | 0.0 | 0.0 | 0.00 | 0.00 | 0.00 | 6 | 1006.0 |
| 20260506213307 | 66 | 180 | 0.0 | 0.0 | 0.00 | 0.00 | 0.00 | 6 | 1006.0 |
| 20260506212712 | 66 | 113 | 0.0 | 0.0 | 0.00 | 0.00 | 0.00 | 6 | 1006.0 |
| 20260506212116 | 66 | 0.0 | 0.0 | 0.00 | 0.00 | 0.00 | 6 | 1006.0 | |
| 20260506211521 | 66 | 0.0 | 1.7 | 0.00 | 0.00 | 0.00 | 6 | 1006.0 | |
| 20260506210926 | 66 | 135 | 1.7 | 3.5 | 0.00 | 0.00 | 0.00 | 6 | 1006.0 |
| 20260506210330 | 66 | 135 | 3.5 | 3.5 | 0.00 | 0.00 | 0.00 | 6 | 1006.0 |
| 20260506205735 | 67 | 135 | 3.5 | 3.5 | 0.00 | 0.00 | 0.00 | 6 | 1006.0 |
| 20260506205140 | 67 | 135 | 3.5 | 3.5 | 0.00 | 0.00 | 0.00 | 6 | 1006.0 |
| 20260506204544 | 67 | 135 | 2.6 | 3.5 | 0.00 | 0.00 | 0.00 | 6 | 1006.0 |
| 20260506203946 | 67 | 135 | 2.6 | 2.6 | 0.00 | 0.00 | 0.00 | 6 | 1005.0 |
| 20260506203350 | 67 | 135 | 0.9 | 1.7 | 0.00 | 0.00 | 0.00 | 6 | 1005.0 |
| 20260506202755 | 67 | 180 | 0.9 | 2.6 | 0.00 | 0.00 | 0.00 | 6 | 1005.0 |
| 20260506202156 | 67 | 135 | 1.7 | 4.3 | 0.00 | 0.00 | 0.00 | 6 | 1005.0 |
| 20260506201601 | 67 | 3.5 | 5.2 | 0.00 | 0.00 | 0.00 | 6 | 1005.0 | |
| 20260506201006 | 68 | 135 | 6.1 | 6.1 | 0.00 | 0.00 | 0.00 | 6 | 1005.0 |
| 20260506200411 | 68 | 135 | 4.3 | 5.2 | 0.00 | 0.00 | 0.00 | 6 | 1005.0 |
| 20260506195816 | 68 | 180 | 6.1 | 8.7 | 0.00 | 0.00 | 0.00 | 6 | 1005.0 |
| 20260506195220 | 68 | 135 | 8.7 | 9.6 | 0.00 | 0.00 | 0.00 | 6 | 1005.0 |
| 20260506194625 | 68 | 158 | 4.3 | 4.3 | 0.00 | 0.00 | 0.00 | 6 | 1005.0 |
| 20260506194026 | 68 | 180 | 2.6 | 3.5 | 0.00 | 0.00 | 0.00 | 6 | 1004.0 |
| 20260506193431 | 68 | 135 | 2.6 | 4.3 | 0.00 | 0.00 | 0.00 | 6 | 1004.0 |
| 20260506192836 | 69 | 180 | 5.2 | 5.2 | 0.00 | 0.00 | 0.00 | 6 | 1004.0 |
| 20260506192241 | 69 | 225 | 0.0 | 0.0 | 0.00 | 0.00 | 0.00 | 5 | 1004.0 |
| 20260506191646 | 69 | 203 | 0.9 | 0.9 | 0.00 | 0.00 | 0.00 | 5 | 1004.0 |
| 20260506191050 | 68 | 225 | 0.9 | 1.7 | 0.00 | 0.00 | 0.00 | 5 | 1004.0 |
| 20260506190455 | 69 | 225 | 0.9 | 2.6 | 0.00 | 0.00 | 0.00 | 5 | 1004.0 |
| 20260506185900 | 69 | 225 | 1.7 | 3.5 | 0.00 | 0.00 | 0.00 | 6 | 1004.0 |
| 20260506185306 | 70 | 225 | 0.0 | 2.6 | 0.00 | 0.00 | 0.00 | 5 | 1004.0 |
| 20260506184709 | 70 | 270 | 0.0 | 4.3 | 0.00 | 0.00 | 0.00 | 5 | 1004.0 |
| 20260506184114 | 71 | 225 | 0.9 | 0.9 | 0.00 | 0.00 | 0.00 | 5 | 1004.0 |
| 20260506183519 | 72 | 135 | 0.0 | 1.7 | 0.00 | 0.00 | 0.00 | 5 | 1004.0 |
| 20260506182924 | 72 | 135 | 0.9 | 1.7 | 0.00 | 0.00 | 0.00 | 5 | 1003.0 |
| 20260506182329 | 73 | 270 | 1.7 | 1.7 | 0.00 | 0.00 | 0.00 | 5 | 1003.0 |
| 20260506181734 | 74 | 270 | 1.7 | 1.7 | 0.00 | 0.00 | 0.00 | 5 | 1003.0 |
| 20260506181139 | 74 | 315 | 1.7 | 1.7 | 0.00 | 0.00 | 0.00 | 5 | 1003.0 |
| 20260506180543 | 75 | 315 | 1.7 | 2.6 | 0.00 | 0.00 | 0.00 | 5 | 1003.0 |
| 20260506175948 | 76 | 0 | 3.5 | 3.5 | 0.00 | 0.00 | 0.00 | 5 | 1003.0 |
| 20260506175352 | 76 | 0 | 1.7 | 2.6 | 0.00 | 0.00 | 0.00 | 4 | 1003.0 |
| 20260506174757 | 77 | 270 | 0.9 | 0.9 | 0.00 | 0.00 | 0.00 | 4 | 1003.0 |
| 20260506174202 | 78 | 225 | 0.9 | 0.9 | 0.00 | 0.00 | 0.00 | 4 | 1003.0 |
| 20260506173606 | 79 | 225 | 0.9 | 1.7 | 0.00 | 0.00 | 0.00 | 4 | 1003.0 |
| 20260506173011 | 80 | 225 | 1.7 | 1.7 | 0.00 | 0.00 | 0.00 | 4 | 1003.0 |
| 20260506172412 | 80 | 225 | 0.0 | 0.9 | 0.00 | 0.00 | 0.00 | 4 | 1003.0 |
| 20260506171813 | 80 | 225 | 0.0 | 0.9 | 0.00 | 0.00 | 0.00 | 4 | 1002.0 |
| 20260506171215 | 79 | 180 | 1.7 | 1.7 | 0.00 | 0.00 | 0.00 | 4 | 1002.0 |
| 20260506170619 | 78 | 225 | 0.9 | 1.7 | 0.00 | 0.00 | 0.00 | 4 | 1002.0 |
| 20260506170024 | 77 | 225 | 1.7 | 2.6 | 0.00 | 0.00 | 0.00 | 4 | 1002.0 |
| 20260506165429 | 76 | 225 | 3.5 | 5.2 | 0.00 | 0.00 | 0.00 | 4 | 1002.0 |
| 20260506164833 | 76 | 225 | 2.6 | 4.3 | 0.00 | 0.00 | 0.00 | 4 | 1002.0 |
| 20260506164238 | 75 | 225 | 4.3 | 5.2 | 0.00 | 0.00 | 0.00 | 4 | 1002.0 |
| 20260506163644 | 75 | 180 | 5.2 | 5.2 | 0.00 | 0.00 | 0.00 | 4 | 1001.0 |
| 20260506163047 | 75 | 225 | 3.5 | 4.3 | 0.00 | 0.00 | 0.00 | 4 | 1001.0 |
| 20260506162452 | 75 | 225 | 3.5 | 5.2 | 0.00 | 0.00 | 0.00 | 4 | 1001.0 |
| 20260506161853 | 75 | 225 | 3.5 | 4.3 | 0.00 | 0.00 | 0.00 | 4 | 1001.0 |
| 20260506161258 | 74 | 225 | 2.6 | 4.3 | 0.00 | 0.00 | 0.00 | 5 | 1001.0 |
| 20260506160703 | 74 | 180 | 3.5 | 5.2 | 0.00 | 0.00 | 0.00 | 4 | 1001.0 |
| 20260506160108 | 74 | 225 | 4.3 | 5.2 | 0.00 | 0.00 | 0.00 | 4 | 1001.0 |
| 20260506155512 | 74 | 180 | 3.5 | 7.0 | 0.00 | 0.00 | 0.00 | 5 | 1001.0 |
| 20260506154917 | 73 | 180 | 3.5 | 5.2 | 0.00 | 0.00 | 0.00 | 5 | 1001.0 |
| 20260506154321 | 73 | 225 | 4.3 | 5.2 | 0.00 | 0.00 | 0.00 | 5 | 1001.0 |
| 20260506153726 | 74 | 180 | 5.2 | 5.2 | 0.00 | 0.00 | 0.00 | 5 | 1001.0 |
| 20260506153131 | 74 | 225 | 5.2 | 5.2 | 0.00 | 0.00 | 0.00 | 5 | 1001.0 |
| 20260506152535 | 74 | 225 | 4.3 | 5.2 | 0.00 | 0.00 | 0.00 | 5 | 1001.0 |
| 20260506151937 | 74 | 225 | 5.2 | 7.0 | 0.00 | 0.00 | 0.00 | 5 | 1001.0 |
| 20260506151341 | 75 | 225 | 1.7 | 4.3 | 0.00 | 0.00 | 0.00 | 5 | 1001.0 |
| 20260506150746 | 75 | 225 | 1.7 | 6.1 | 0.00 | 0.00 | 0.00 | 5 | 1001.0 |
| 20260506150151 | 75 | 225 | 4.3 | 4.3 | 0.00 | 0.00 | 0.00 | 5 | 1001.0 |
| 20260506145555 | 75 | 225 | 4.3 | 4.3 | 0.00 | 0.00 | 0.00 | 5 | 1001.0 |
| 20260506145000 | 75 | 225 | 4.3 | 4.3 | 0.00 | 0.00 | 0.00 | 4 | 1001.0 |
| 20260506144401 | 75 | 135 | 4.3 | 6.1 | 0.00 | 0.00 | 0.00 | 5 | 1001.0 |
| 20260506143806 | 76 | 180 | 3.5 | 5.2 | 0.00 | 0.00 | 0.00 | 5 | 1002.0 |
| 20260506143210 | 76 | 180 | 2.6 | 4.3 | 0.00 | 0.00 | 0.00 | 5 | 1002.0 |
| 20260506142615 | 76 | 225 | 3.5 | 4.3 | 0.00 | 0.00 | 0.00 | 5 | 1002.0 |
| 20260506142019 | 76 | 225 | 3.5 | 6.1 | 0.00 | 0.00 | 0.00 | 5 | 1002.0 |
| 20260506141424 | 76 | 225 | 4.3 | 4.3 | 0.00 | 0.00 | 0.00 | 5 | 1002.0 |
| 20260506140828 | 76 | 225 | 2.6 | 4.3 | 0.00 | 0.00 | 0.00 | 5 | 1002.0 |
| 20260506140230 | 76 | 225 | 2.6 | 3.5 | 0.00 | 0.00 | 0.00 | 5 | 1002.0 |
| 20260506135635 | 76 | 225 | 3.5 | 4.3 | 0.00 | 0.00 | 0.00 | 5 | 1002.0 |
| 20260506135036 | 76 | 225 | 2.6 | 5.2 | 0.00 | 0.00 | 0.00 | 5 | 1002.0 |
| 20260506134437 | 76 | 225 | 4.3 | 4.3 | 0.00 | 0.00 | 0.00 | 5 | 1002.0 |
| 20260506133842 | 76 | 225 | 3.5 | 4.3 | 0.00 | 0.00 | 0.00 | 5 | 1002.0 |
| 20260506133247 | 76 | 180 | 3.5 | 4.3 | 0.00 | 0.00 | 0.00 | 5 | 1002.0 |
| 20260506132651 | 76 | 225 | 4.3 | 6.1 | 0.00 | 0.00 | 0.00 | 5 | 1002.0 |
| 20260506132053 | 76 | 225 | 3.5 | 3.5 | 0.00 | 0.00 | 0.00 | 5 | 1002.0 |
| 20260506131458 | 76 | 225 | 3.5 | 4.3 | 0.00 | 0.00 | 0.00 | 5 | 1002.0 |
| 20260506130902 | 76 | 225 | 4.3 | 5.2 | 0.00 | 0.00 | 0.00 | 5 | 1002.0 |
| 20260506130307 | 76 | 180 | 2.6 | 5.2 | 0.00 | 0.00 | 0.00 | 5 | 1002.0 |
| 20260506125712 | 75 | 180 | 10.4 | 10.4 | 0.00 | 0.00 | 0.00 | 5 | 1002.0 |
| 20260506125113 | 75 | 225 | 1.7 | 9.6 | 0.00 | 0.00 | 0.00 | 5 | 1002.0 |
| 20260506124518 | 75 | 180 | 7.0 | 8.7 | 0.00 | 0.00 | 0.00 | 5 | 1002.0 |
| 20260506123923 | 76 | 180 | 4.3 | 5.2 | 0.00 | 0.00 | 0.00 | 5 | 1002.0 |
| 20260506123328 | 75 | 203 | 4.3 | 7.0 | 0.00 | 0.00 | 0.00 | 5 | 1002.0 |
| 20260506122732 | 75 | 180 | 4.3 | 7.0 | 0.00 | 0.00 | 0.00 | 5 | 1002.0 |
| 20260506122137 | 74 | 180 | 3.5 | 7.8 | 0.00 | 0.00 | 0.00 | 6 | 1002.0 |
| 20260506121542 | 74 | 180 | 7.0 | 8.7 | 0.00 | 0.00 | 0.00 | 6 | 1002.0 |
| 20260506120947 | 74 | 225 | 6.1 | 8.7 | 0.00 | 0.00 | 0.00 | 5 | 1002.0 |
| 20260506120352 | 74 | 180 | 7.8 | 9.6 | 0.00 | 0.00 | 0.00 | 6 | 1002.0 |
| 20260506115753 | 75 | 180 | 7.0 | 7.0 | 0.00 | 0.00 | 0.00 | 6 | 1002.0 |
| 20260506115158 | 75 | 225 | 4.3 | 5.2 | 0.00 | 0.00 | 0.00 | 6 | 1002.0 |
| 20260506114603 | 74 | 225 | 2.6 | 3.5 | 0.00 | 0.00 | 0.00 | 7 | 1002.0 |
| 20260506114008 | 74 | 6.1 | 6.1 | 0.00 | 0.00 | 0.00 | 7 | 1002.0 | |
| 20260506112859 | 73 | 2.6 | 3.5 | 0.00 | 0.00 | 0.00 | 8 | 1002.0 | |
| 20260506112306 | 72 | 135 | 3.5 | 3.5 | 0.00 | 0.00 | 0.00 | 8 | 1002.0 |
| 20260506111709 | 72 | 135 | 2.6 | 4.3 | 0.00 | 0.00 | 0.00 | 8 | 1003.0 |
| 20260506111114 | 71 | 45 | 3.5 | 3.5 | 0.00 | 0.00 | 0.00 | 8 | 1003.0 |
| 20260506110518 | 71 | 2.6 | 4.3 | 0.00 | 0.00 | 0.00 | 8 | 1003.0 | |
| 20260506105922 | 70 | 3.5 | 4.3 | 0.00 | 0.00 | 0.00 | 8 | 1003.0 | |
| 20260506105327 | 70 | 0 | 3.5 | 3.5 | 0.00 | 0.00 | 0.00 | 8 | 1003.0 |
| 20260506104731 | 70 | 135 | 5.2 | 5.2 | 0.00 | 0.00 | 0.00 | 8 | 1003.0 |
| 20260506104136 | 70 | 135 | 3.5 | 6.1 | 0.00 | 0.00 | 0.00 | 8 | 1003.0 |
| 20260506103540 | 70 | 135 | 5.2 | 5.2 | 0.00 | 0.00 | 0.00 | 8 | 1003.0 |
| 20260506102942 | 70 | 113 | 2.6 | 5.2 | 0.00 | 0.00 | 0.00 | 8 | 1003.0 |
| 20260506102347 | 70 | 135 | 3.5 | 5.2 | 0.00 | 0.00 | 0.00 | 8 | 1003.0 |
| 20260506101752 | 70 | 135 | 5.2 | 6.1 | 0.00 | 0.00 | 0.00 | 8 | 1003.0 |
| 20260506101156 | 70 | 180 | 2.6 | 5.2 | 0.00 | 0.00 | 0.00 | 8 | 1003.0 |
| 20260506100601 | 70 | 2.6 | 3.5 | 0.00 | 0.00 | 0.00 | 8 | 1003.0 | |
| 20260506100006 | 70 | 45 | 2.6 | 3.5 | 0.00 | 0.00 | 0.00 | 9 | 1003.0 |
| 20260506095411 | 70 | 135 | 4.3 | 4.3 | 0.00 | 0.00 | 0.00 | 9 | 1003.0 |
| 20260506094812 | 69 | 135 | 4.3 | 5.2 | 0.00 | 0.00 | 0.00 | 9 | 1003.0 |
| 20260506094217 | 68 | 2.6 | 5.2 | 0.00 | 0.00 | 0.00 | 9 | 1003.0 | |
| 20260506093622 | 68 | 135 | 6.1 | 6.1 | 0.11 | 0.00 | 0.00 | 9 | 1003.0 |
| 20260506093027 | 67 | 135 | 2.6 | 4.3 | 0.11 | 0.00 | 0.00 | 9 | 1003.0 |
| 20260506092432 | 67 | 4.3 | 6.1 | 0.11 | 0.00 | 0.00 | 9 | 1003.0 | |
| 20260506091836 | 66 | 135 | 2.6 | 6.1 | 0.11 | 0.00 | 0.00 | 10 | 1003.0 |
| 20260506091238 | 66 | 1.7 | 4.3 | 0.11 | 0.00 | 0.00 | 10 | 1003.0 | |
| 20260506090639 | 66 | 113 | 2.6 | 4.3 | 0.11 | 0.00 | 0.00 | 10 | 1003.0 |
| 20260506090044 | 65 | 135 | 4.3 | 5.2 | 0.11 | 0.00 | 0.00 | 10 | 1003.0 |
| 20260506085448 | 65 | 180 | 4.3 | 4.3 | 0.11 | 0.00 | 0.00 | 10 | 1003.0 |
| 20260506084853 | 65 | 180 | 2.6 | 3.5 | 0.11 | 0.00 | 0.00 | 10 | 1003.0 |
| 20260506084257 | 64 | 4.3 | 4.3 | 0.11 | 0.00 | 0.00 | 10 | 1003.0 | |
| 20260506083659 | 64 | 3.5 | 3.5 | 0.11 | 0.00 | 0.00 | 10 | 1003.0 | |
| 20260506083103 | 64 | 135 | 0.9 | 4.3 | 0.11 | 0.00 | 0.00 | 10 | 1003.0 |
| 20260506082505 | 63 | 135 | 5.2 | 5.2 | 0.00 | 0.00 | 0.00 | 10 | 1003.0 |
| 20260506081910 | 63 | 180 | 0.9 | 3.5 | 0.00 | 0.00 | 0.00 | 10 | 1003.0 |
| 20260506081315 | 62 | 135 | 2.6 | 4.3 | 0.00 | 0.00 | 0.00 | 10 | 1003.0 |
| 20260506080720 | 62 | 45 | 0.9 | 3.5 | 0.00 | 0.00 | 0.00 | 10 | 1003.0 |
| 20260506080125 | 62 | 45 | 3.5 | 5.2 | 0.00 | 0.00 | 0.00 | 10 | 1002.0 |
| 20260506073144 | 62 | 135 | 2.6 | 2.6 | 0.00 | 0.00 | 0.00 | 10 | 1004.0 |
| 20260506072549 | 62 | 180 | 0.9 | 0.9 | 0.00 | 0.00 | 0.00 | 10 | 1003.0 |
| 20260506071441 | 62 | 45 | 0.0 | 1.7 | 0.00 | 0.00 | 0.00 | 10 | 1003.0 |
| 20260506070846 | 62 | 45 | 0.0 | 1.7 | 0.00 | 0.00 | 0.00 | 10 | 1003.0 |
| 20260506070251 | 62 | 0.9 | 1.7 | 0.00 | 0.00 | 0.00 | 10 | 1003.0 | |
| 20260506062117 | 62 | 45 | 1.7 | 4.3 | 0.00 | 0.00 | 0.00 | 10 | 1003.0 |
| 20260506061522 | 61 | 113 | 1.7 | 2.6 | 0.00 | 0.00 | 0.00 | 10 | 1003.0 |
| 20260506060927 | 61 | 180 | 2.6 | 3.5 | 0.00 | 0.00 | 0.00 | 10 | 1003.0 |
| 20260506060331 | 61 | 135 | 5.2 | 5.2 | 0.00 | 0.00 | 0.00 | 10 | 1003.0 |
| 20260506051014 | 61 | 0.0 | 0.9 | 0.00 | 0.00 | 0.00 | 10 | 1004.0 | |
| 20260506050418 | 61 | 135 | 0.0 | 0.9 | 0.00 | 0.00 | 0.00 | 10 | 1004.0 |
| 20260506044630 | 61 | 135 | 0.0 | 0.0 | 0.00 | 0.00 | 0.00 | 10 | 1004.0 |
| 20260506044034 | 61 | 0.0 | 1.7 | 0.00 | 0.00 | 0.00 | 10 | 1003.0 | |
| 20260506043439 | 60 | 45 | 0.0 | 1.7 | 0.00 | 0.00 | 0.00 | 10 | 1003.0 |
| 20260506042844 | 61 | 0.0 | 1.7 | 0.00 | 0.00 | 0.00 | 10 | 1004.0 | |
| 20260506042249 | 60 | 0.0 | 0.9 | 0.00 | 0.00 | 0.00 | 10 | 1004.0 | |
| 20260506041652 | 61 | 135 | 0.0 | 0.0 | 0.00 | 0.00 | 0.00 | 10 | 1004.0 |
| 20260506041056 | 61 | 135 | 0.0 | 0.0 | 0.00 | 0.00 | 0.00 | 10 | 1004.0 |
| 20260506040459 | 61 | 0.0 | 0.0 | 0.00 | 0.00 | 0.00 | 10 | 1004.0 | |
| 20260506035903 | 61 | 0.0 | 0.0 | 0.00 | 0.00 | 0.00 | 10 | 1004.0 | |
| 20260506035307 | 61 | 135 | 0.0 | 0.9 | 0.00 | 0.00 | 0.00 | 9 | 1004.0 |
| 20260506034711 | 61 | 0.9 | 0.9 | 0.00 | 0.00 | 0.00 | 9 | 1004.0 | |
| 20260506033548 | 61 | 225 | 0.0 | 0.0 | 0.00 | 0.00 | 0.00 | 9 | 1004.0 |
| 20260506032952 | 61 | 180 | 0.0 | 0.0 | 0.00 | 0.00 | 0.00 | 9 | 1005.0 |
| 20260506032356 | 61 | 135 | 0.0 | 0.0 | 0.00 | 0.00 | 0.00 | 9 | 1005.0 |
| 20260506031800 | 61 | 135 | 0.0 | 0.0 | 0.00 | 0.00 | 0.00 | 9 | 1005.0 |
| 20260506031204 | 61 | 135 | 0.0 | 0.9 | 0.00 | 0.00 | 0.00 | 9 | 1005.0 |
| 20260506030608 | 61 | 135 | 0.0 | 0.0 | 0.00 | 0.00 | 0.00 | 9 | 1005.0 |
| 20260506030011 | 61 | 135 | 0.0 | 0.0 | 0.00 | 0.00 | 0.00 | 9 | 1005.0 |
| 20260506024902 | 61 | 0.0 | 0.0 | 0.00 | 0.00 | 0.00 | 9 | 1005.0 | |
| 20260506023113 | 61 | 180 | 0.0 | 0.0 | 0.00 | 0.00 | 0.00 | 9 | 1005.0 |
| 20260506022516 | 61 | 180 | 0.0 | 0.0 | 0.00 | 0.00 | 0.00 | 9 | 1006.0 |
| 20260506020725 | 61 | 135 | 0.0 | 0.0 | 0.00 | 0.00 | 0.00 | 9 | 1006.0 |
| 20260506020129 | 61 | 135 | 0.0 | 0.0 | 0.00 | 0.00 | 0.00 | 9 | 1006.0 |
| 20260506014340 | 61 | 180 | 0.0 | 0.0 | 0.00 | 0.00 | 0.00 | 9 | 1006.0 |
| 20260506012549 | 61 | 135 | 0.0 | 0.0 | 0.00 | 0.00 | 0.00 | 10 | 1006.0 |
| 20260506011440 | 61 | 180 | 0.0 | 0.0 | 0.00 | 0.00 | 0.00 | 10 | 1006.0 |
| 20260506010844 | 61 | 180 | 0.0 | 0.0 | 0.00 | 0.00 | 0.00 | 10 | 1006.0 |
| 20260506010248 | 61 | 180 | 0.0 | 0.0 | 0.00 | 0.00 | 0.00 | 10 | 1006.0 |
| 20260506005649 | 61 | 180 | 0.0 | 0.0 | 0.00 | 0.00 | 0.00 | 10 | 1006.0 |
| 20260506005053 | 61 | 180 | 0.0 | 0.0 | 0.00 | 0.00 | 0.00 | 9 | 1006.0 |
| 20260506004456 | 61 | 180 | 0.9 | 0.9 | 0.00 | 0.00 | 0.00 | 9 | 1006.0 |
| 20260506003901 | 61 | 45 | 0.0 | 0.9 | 0.00 | 0.00 | 0.00 | 9 | 1006.0 |
| 20260506003304 | 61 | 45 | 0.0 | 0.0 | 0.00 | 0.00 | 0.00 | 9 | 1006.0 |
| 20260506002709 | 61 | 45 | 0.0 | 0.0 | 0.00 | 0.00 | 0.00 | 9 | 1006.0 |
| 20260506002113 | 61 | 0 | 0.0 | 0.0 | 0.00 | 0.00 | 0.00 | 9 | 1006.0 |
| 20260506001515 | 61 | 0 | 0.0 | 0.0 | 0.00 | 0.00 | 0.00 | 9 | 1006.0 |
| 20260506000920 | 61 | 0 | 0.0 | 0.0 | 0.00 | 0.00 | 0.00 | 9 | 1006.0 |
| 20260506000325 | 61 | 45 | 0.0 | 0.0 | 0.00 | 0.00 | 0.00 | 9 | 1006.0 |
| 20260505235730 | 62 | 113 | 0.0 | 0.0 | 0.00 | 0.00 | 0.00 | 9 | 1007.0 |
| 20260505235134 | 62 | 113 | 0.0 | 0.0 | 0.00 | 0.00 | 0.00 | 9 | 1007.0 |
| 20260505234538 | 62 | 180 | 0.0 | 0.0 | 0.00 | 0.00 | 0.00 | 9 | 1007.0 |
| 20260505233942 | 62 | 180 | 0.0 | 0.0 | 0.00 | 0.00 | 0.00 | 9 | 1007.0 |
| 20260505232833 | 62 | 180 | 0.0 | 0.0 | 0.00 | 0.00 | 0.00 | 9 | 1007.0 |
| 20260505232238 | 62 | 45 | 0.0 | 0.0 | 0.00 | 0.00 | 0.00 | 9 | 1007.0 |
| 20260505231622 | 62 | 225 | 0.0 | 0.0 | 0.00 | 0.00 | 0.00 | 9 | 1007.0 |
| 20260505231027 | 62 | 270 | 0.0 | 0.0 | 0.00 | 0.00 | 0.00 | 9 | 1007.0 |
| 20260505230431 | 62 | 270 | 0.0 | 0.0 | 0.00 | 0.00 | 0.00 | 9 | 1007.0 |
| 20260505225836 | 62 | 270 | 0.0 | 0.0 | 0.00 | 0.00 | 0.00 | 9 | 1007.0 |
| 20260505225241 | 62 | 270 | 0.0 | 0.0 | 0.00 | 0.00 | 0.00 | 9 | 1007.0 |
| 20260505224645 | 62 | 180 | 0.0 | 0.0 | 0.00 | 0.00 | 0.00 | 9 | 1007.0 |
| 20260505224050 | 63 | 45 | 0.0 | 0.0 | 0.00 | 0.00 | 0.00 | 9 | 1007.0 |
| 20260505223455 | 63 | 0 | 0.9 | 1.7 | 0.00 | 0.00 | 0.00 | 9 | 1007.0 |
| 20260505222900 | 63 | 315 | 1.7 | 1.7 | 0.00 | 0.00 | 0.00 | 9 | 1007.0 |
| 20260505222306 | 63 | 0 | 1.7 | 2.6 | 0.00 | 0.00 | 0.00 | 9 | 1007.0 |
| 20260505221710 | 63 | 0 | 1.7 | 2.6 | 0.00 | 0.00 | 0.00 | 9 | 1007.0 |
| 20260505221114 | 63 | 0 | 2.6 | 2.6 | 0.00 | 0.00 | 0.00 | 9 | 1007.0 |